Peotone Weather
Station Historical Data
Daily Summary for March 20, 2017 Units:  Metric    English   Both
« Previous Day
Next Day »
Daily Weekly Monthly Yearly Custom
  High: Low: Average:
Temperature: 12.8 °C 3.3 °C 7.9 °C
Dew Point: 9.9 °C 2.3 °C 5.6 °C
Humidity: 94% 71% 85%
Wind Speed: 35.2km/h 0km/h 9.3km/h
Wind Gust: 35.2km/h - -
Wind- - SE
Pressure: 1019.9 hPa 1014.1 hPa -
Precipitation: 10.67 mm    
Historical Graphs
 
 
Tabular Data for March 20, 2017
Time Temperature Dew Point Pressure Wind Wind Speed Wind Gust Humidity Rainfall Rate (Hourly) solar Conditions
00:00 7.4 °C 3.1 °C 1019.9 hPa South 20.3 km/h 24 km/h 74% 0 mm 0.00 W/m2
00:01 7.4 °C 3.1 °C 1019.9 hPa South 20.3 km/h 24 km/h 74% 0 mm 0.00 W/m2
00:05 7.5 °C 3.2 °C 1019.9 hPa South 18.5 km/h 24 km/h 74% 0 mm 0.00 W/m2
00:06 7.5 °C 3.2 °C 1019.5 hPa South 18.5 km/h 18.5 km/h 74% 0 mm 0.00 W/m2
00:10 7.5 °C 3.3 °C 1019.5 hPa SSE 14.8 km/h 22.2 km/h 75% 0 mm 0.00 W/m2
00:11 7.5 °C 3.3 °C 1019.5 hPa SSE 16.6 km/h 16.6 km/h 75% 0 mm 0.00 W/m2
00:15 7.5 °C 3.3 °C 1019.5 hPa SSE 14.8 km/h 22.2 km/h 75% 0 mm 0.00 W/m2
00:16 7.4 °C 3.3 °C 1019.2 hPa SSE 20.3 km/h 20.3 km/h 75% 0 mm 0.00 W/m2
00:20 7.5 °C 3.3 °C 1019.5 hPa SSW 11.1 km/h 20.3 km/h 75% 0 mm 0.00 W/m2
00:21 7.5 °C 3.3 °C 1019.5 hPa South 13 km/h 13 km/h 75% 0 mm 0.00 W/m2
00:25 7.6 °C 3.3 °C 1019.2 hPa South 14.8 km/h 20.3 km/h 74% 0 mm 0.00 W/m2
00:26 7.6 °C 3.3 °C 1019.2 hPa SSW 16.6 km/h 18.5 km/h 74% 0 mm 0.00 W/m2
00:30 7.8 °C 3.2 °C 1019.2 hPa South 16.7 km/h 22.2 km/h 73% 0 mm 0.00 W/m2
00:31 7.8 °C 3.2 °C 1019.2 hPa SSE 16.6 km/h 18.5 km/h 73% 0 mm 0.00 W/m2
00:35 7.9 °C 3.2 °C 1018.8 hPa SSE 24 km/h 33.3 km/h 72% 0 mm 0.00 W/m2
00:36 7.9 °C 3.2 °C 1018.8 hPa SSE 16.6 km/h 24 km/h 72% 0 mm 0.00 W/m2
00:40 7.9 °C 3.4 °C 1018.8 hPa SSE 16.7 km/h 27.7 km/h 73% 0 mm 0.00 W/m2
00:41 7.9 °C 3.4 °C 1018.8 hPa SSE 14.8 km/h 18.5 km/h 73% 0 mm 0.00 W/m2
00:45 7.9 °C 3.4 °C 1018.8 hPa South 16.7 km/h 25.9 km/h 73% 0 mm 0.00 W/m2
00:46 7.9 °C 3.4 °C 1018.8 hPa South 16.6 km/h 18.5 km/h 73% 0 mm 0.00 W/m2
00:50 7.9 °C 3.4 °C 1018.5 hPa South 18.5 km/h 27.7 km/h 73% 0 mm 0.00 W/m2
00:51 7.9 °C 3.3 °C 1018.5 hPa SSE 9.3 km/h 18.5 km/h 73% 0 mm 0.00 W/m2
00:55 7.8 °C 3.3 °C 1018.5 hPa South 7.4 km/h 24 km/h 73% 0 mm 0.00 W/m2
00:56 7.8 °C 3.3 °C 1018.5 hPa SSE 13 km/h 14.8 km/h 73% 0 mm 0.00 W/m2
01:00 7.8 °C 3.3 °C 1018.2 hPa SSE 11.1 km/h 25.9 km/h 73% 0 mm 0.00 W/m2
01:01 7.8 °C 3.3 °C 1018.2 hPa SSE 13 km/h 16.6 km/h 73% 0 mm 0.00 W/m2
01:05 7.8 °C 3.3 °C 1018.2 hPa SSE 11.1 km/h 29.6 km/h 73% 0 mm 0.00 W/m2
01:07 7.8 °C 3.1 °C 1018.2 hPa SSE 5.5 km/h 11.1 km/h 72% 0 mm 0.00 W/m2
01:10 7.8 °C 3.2 °C 1018.2 hPa East 9.3 km/h 22.2 km/h 73% 0 mm 0.00 W/m2
01:12 7.8 °C 3.2 °C 1018.2 hPa South 16.6 km/h 20.3 km/h 73% 0 mm 0.00 W/m2
01:15 7.8 °C 3.2 °C 1018.2 hPa SSE 20.3 km/h 25.9 km/h 73% 0 mm 0.00 W/m2
01:17 7.8 °C 3.2 °C 1018.2 hPa SSE 11.1 km/h 20.3 km/h 73% 0 mm 0.00 W/m2
01:20 7.8 °C 3.3 °C 1018.2 hPa SSE 16.7 km/h 22.2 km/h 73% 0 mm 0.00 W/m2
01:22 7.8 °C 3.3 °C 1018.2 hPa SSE 11.1 km/h 20.3 km/h 73% 0 mm 0.00 W/m2
01:25 7.8 °C 3.3 °C 1017.8 hPa South 14.8 km/h 22.2 km/h 73% 0 mm 0.00 W/m2
01:27 7.8 °C 3.3 °C 1017.8 hPa SSE 13 km/h 14.8 km/h 73% 0 mm 0.00 W/m2
01:30 7.8 °C 3.3 °C 1017.8 hPa SSE 11.1 km/h 25.9 km/h 73% 0 mm 0.00 W/m2
01:32 7.8 °C 3.2 °C 1017.5 hPa SSE 13 km/h 18.5 km/h 73% 0 mm 0.00 W/m2
01:35 7.8 °C 3.2 °C 1017.5 hPa SSE 13 km/h 22.2 km/h 73% 0 mm 0.00 W/m2
01:37 7.8 °C 3.2 °C 1017.5 hPa South 13 km/h 20.3 km/h 73% 0 mm 0.00 W/m2
01:40 7.7 °C 3.2 °C 1017.5 hPa South 20.3 km/h 22.2 km/h 73% 0 mm 0.00 W/m2
01:42 7.7 °C 3.2 °C 1017.5 hPa South 18.5 km/h 20.3 km/h 73% 0 mm 0.00 W/m2
01:45 7.7 °C 3.2 °C 1017.2 hPa SE 14.8 km/h 24 km/h 73% 0 mm 0.00 W/m2
01:47 7.7 °C 3.2 °C 1017.2 hPa SE 14.8 km/h 18.5 km/h 73% 0 mm 0.00 W/m2
01:50 7.7 °C 3.2 °C 1017.2 hPa SE 14.8 km/h 25.9 km/h 73% 0 mm 0.00 W/m2
01:52 7.7 °C 3.2 °C 1017.2 hPa South 24 km/h 24 km/h 73% 0 mm 0.00 W/m2
01:55 7.7 °C 3.4 °C 1016.8 hPa South 13 km/h 29.6 km/h 74% 0 mm 0.00 W/m2
01:57 7.8 °C 3.2 °C 1017.2 hPa South 22.2 km/h 24 km/h 73% 0 mm 0.00 W/m2
02:00 7.8 °C 3.3 °C 1016.8 hPa SSE 20.3 km/h 27.7 km/h 73% 0 mm 0.00 W/m2
02:02 7.8 °C 3.3 °C 1016.8 hPa SSE 18.5 km/h 20.3 km/h 73% 0 mm 0.00 W/m2
02:05 7.8 °C 3.3 °C 1016.8 hPa South 18.5 km/h 27.7 km/h 73% 0 mm 0.00 W/m2
02:07 7.8 °C 3.3 °C 1016.8 hPa SSE 16.6 km/h 20.3 km/h 73% 0 mm 0.00 W/m2
02:10 7.8 °C 3.2 °C 1016.8 hPa South 20.3 km/h 27.7 km/h 73% 0 mm 0.00 W/m2
02:12 7.8 °C 3.2 °C 1016.8 hPa SSE 14.8 km/h 20.3 km/h 73% 0 mm 0.00 W/m2
02:15 7.7 °C 3.2 °C 1016.8 hPa SSE 18.5 km/h 24 km/h 73% 0 mm 0.00 W/m2
02:17 7.7 °C 3.2 °C 1016.5 hPa SSE 9.3 km/h 18.5 km/h 73% 0 mm 0.00 W/m2
02:20 7.7 °C 3.2 °C 1016.5 hPa SSE 27.7 km/h 27.7 km/h 73% 0 mm 0.00 W/m2
02:22 7.7 °C 3.2 °C 1016.5 hPa SSE 14.8 km/h 27.7 km/h 73% 0 mm 0.00 W/m2
02:25 7.7 °C 3.2 °C 1016.5 hPa SSE 7.4 km/h 27.7 km/h 73% 0 mm 0.00 W/m2
02:27 7.7 °C 3.2 °C 1016.1 hPa SSE 13 km/h 18.5 km/h 73% 0 mm 0.00 W/m2
02:30 7.7 °C 3.2 °C 1016.1 hPa SSE 14.8 km/h 27.7 km/h 73% 0 mm 0.00 W/m2
02:32 7.7 °C 3.2 °C 1016.1 hPa SSE 14.8 km/h 22.2 km/h 73% 0 mm 0.00 W/m2
02:35 7.8 °C 3.2 °C 1016.1 hPa SSE 13 km/h 24 km/h 73% 0 mm 0.00 W/m2
02:37 7.8 °C 3.3 °C 1016.5 hPa SSW 13 km/h 20.3 km/h 73% 0 mm 0.00 W/m2
02:40 7.9 °C 3.3 °C 1016.5 hPa South 18.5 km/h 22.2 km/h 73% 0 mm 0.00 W/m2
02:42 7.8 °C 3.3 °C 1016.1 hPa South 20.3 km/h 22.2 km/h 73% 0 mm 0.00 W/m2
02:45 7.8 °C 3.3 °C 1015.8 hPa South 13 km/h 22.2 km/h 73% 0 mm 0.00 W/m2
02:47 7.8 °C 3.3 °C 1015.8 hPa South 7.4 km/h 14.8 km/h 73% 0 mm 0.00 W/m2
02:50 7.9 °C 3.4 °C 1015.8 hPa SSE 16.7 km/h 16.7 km/h 73% 0 mm 0.00 W/m2
02:52 7.9 °C 3.2 °C 1015.8 hPa South 7.4 km/h 16.6 km/h 72% 0 mm 0.00 W/m2
02:55 8.1 °C 3.5 °C 1015.8 hPa South 9.3 km/h 18.5 km/h 73% 0 mm 0.00 W/m2
02:57 8.1 °C 3.3 °C 1015.8 hPa SSE 9.3 km/h 13 km/h 72% 0 mm 0.00 W/m2
03:00 8.1 °C 3.4 °C 1015.5 hPa SSE 11.1 km/h 18.5 km/h 72% 0 mm 0.00 W/m2
03:05 8.3 °C 3.3 °C 1015.8 hPa South 13 km/h 13 km/h 71% 0 mm 0.00 W/m2
03:06 8.2 °C 3.5 °C 1015.8 hPa SSE 1.8 km/h 1.8 km/h 72% 0 mm 0.00 W/m2
03:10 8.4 °C 3.4 °C 1017.2 hPa NW 14.8 km/h 16.7 km/h 71% 0 mm 0.00 W/m2
03:11 8.4 °C 3.4 °C 1017.2 hPa NW 14.8 km/h 16.6 km/h 71% 0 mm 0.00 W/m2
03:18 8.4 °C 3.9 °C 1017.5 hPa North 1.8 km/h 1.8 km/h 73% 0 mm 0.00 W/m2
03:20 8.3 °C 4.5 °C 1017.5 hPa North 7.4 km/h 13 km/h 77% 0.25 mm 0.00 W/m2
03:23 8.1 °C 4.6 °C 1017.5 hPa North 7.4 km/h 13 km/h 79% 0.25 mm 0.00 W/m2
03:28 7.6 °C 4.7 °C 1016.8 hPa Calm   1.8 km/h 82% 0.51 mm 0.00 W/m2
03:30 7.4 °C 4.5 °C 1016.5 hPa Calm   5.6 km/h 82% 0.51 mm 0.00 W/m2
03:33 7.3 °C 4.6 °C 1016.5 hPa ENE 3.7 km/h 5.5 km/h 83% 0.51 mm 0.00 W/m2
03:35 7.2 °C 4.8 °C 1016.8 hPa Calm   5.6 km/h 85% 0.76 mm 0.00 W/m2
03:39 7.1 °C 4.9 °C 1017.5 hPa Calm     86% 0.76 mm 0.00 W/m2
03:40 7 °C 5 °C 1017.8 hPa ENE 7.4 km/h 7.4 km/h 87% 0.76 mm 0.00 W/m2
03:44 6.9 °C 5.1 °C 1017.8 hPa NE 16.6 km/h 16.6 km/h 88% 1.02 mm 0.00 W/m2
03:45 6.8 °C 4.8 °C 1017.8 hPa North 13 km/h 16.7 km/h 87% 1.27 mm 0.00 W/m2
03:50 6.4 °C 4.6 °C 1018.2 hPa NNE 11.1 km/h 11.1 km/h 88% 1.52 mm 0.00 W/m2
03:52 6.4 °C 4.6 °C 1018.2 hPa NNE 11.1 km/h 11.1 km/h 88% 1.52 mm 0.00 W/m2
03:55 6.3 °C 4.7 °C 1018.2 hPa NE 9.3 km/h 16.7 km/h 89% 1.52 mm 0.00 W/m2
03:57 6.3 °C 4.6 °C 1018.5 hPa NNE 9.3 km/h 14.8 km/h 89% 1.52 mm 0.00 W/m2
04:03 6.2 °C 4.7 °C 1018.8 hPa NE 5.5 km/h 5.5 km/h 90% 0 mm 0.00 W/m2
04:05 6.1 °C 4.6 °C 1018.8 hPa NE 9.3 km/h 14.8 km/h 90% 3.3 mm 0.00 W/m2
04:08 6.1 °C 4.7 °C 1019.5 hPa NNW 3.7 km/h 9.3 km/h 91% 3.81 mm 0.00 W/m2
04:10 6 °C 4.7 °C 1019.5 hPa Calm   13 km/h 91% 4.06 mm 0.00 W/m2
04:15 6 °C 4.8 °C 1019.9 hPa North 7.4 km/h 7.4 km/h 92% 4.57 mm 0.00 W/m2
04:20 5.9 °C 4.7 °C 1018.8 hPa East 11.1 km/h 11.1 km/h 92% 5.08 mm 0.00 W/m2
04:25 5.9 °C 4.7 °C 1018.8 hPa East 5.6 km/h 5.6 km/h 92% 5.08 mm 0.00 W/m2
04:26 5.9 °C 4.7 °C 1018.8 hPa East 1.8 km/h 1.8 km/h 92% 5.08 mm 0.00 W/m2
04:30 5.9 °C 4.8 °C 1018.8 hPa East 5.6 km/h 5.6 km/h 93% 4.83 mm 0.00 W/m2
04:31 5.9 °C 4.8 °C 1018.8 hPa East 3.7 km/h 5.5 km/h 93% 4.83 mm 0.00 W/m2
04:37 5.9 °C 4.8 °C 1018.8 hPa ESE 3.7 km/h 3.7 km/h 93% 0 mm 0.00 W/m2
04:40 5.8 °C 4.8 °C 1018.5 hPa ESE 3.7 km/h 7.4 km/h 93% 5.59 mm 0.00 W/m2
04:42 5.8 °C 4.8 °C 1018.5 hPa ESE 7.4 km/h 7.4 km/h 93% 5.33 mm 0.00 W/m2
04:48 5.8 °C 4.8 °C 1018.5 hPa SE 9.3 km/h 9.3 km/h 93% 5.59 mm 0.00 W/m2
04:50 5.9 °C 4.8 °C 1018.8 hPa SE 9.3 km/h 18.5 km/h 93% 5.84 mm 0.00 W/m2
04:53 5.9 °C 4.8 °C 1018.5 hPa ESE 7.4 km/h 11.1 km/h 93% 5.33 mm 0.00 W/m2
04:55 5.9 °C 4.8 °C 1018.2 hPa ESE 9.3 km/h 16.7 km/h 93% 5.59 mm 0.00 W/m2
05:00 5.8 °C 4.8 °C 1017.8 hPa ESE 9.3 km/h 13 km/h 93% 5.84 mm 0.00 W/m2
05:05 5.8 °C 4.8 °C 1017.5 hPa SE 13 km/h 14.8 km/h 93% 4.32 mm 0.00 W/m2
05:10 5.9 °C 5 °C 1017.5 hPa SE 13 km/h 13 km/h 94% 4.83 mm 0.00 W/m2
05:15 5.9 °C 5.1 °C 1017.2 hPa SSE 11.1 km/h 20.3 km/h 94% 4.83 mm 0.00 W/m2
05:16 5.9 °C 5.1 °C 1017.2 hPa SSE 14.8 km/h 20.3 km/h 94% 4.83 mm 0.00 W/m2
05:23 5.9 °C 5 °C 1016.8 hPa South 16.6 km/h 18.5 km/h 94% 4.57 mm 0.00 W/m2
05:25 5.8 °C 4.9 °C 1016.1 hPa SE 20.3 km/h 29.6 km/h 94% 4.83 mm 0.00 W/m2
05:28 5.8 °C 4.9 °C 1015.5 hPa SE 20.3 km/h 22.2 km/h 94% 4.32 mm 0.00 W/m2
05:30 5.8 °C 4.9 °C 1014.8 hPa SE 35.2 km/h 35.2 km/h 94% 4.57 mm 0.00 W/m2
05:33 5.8 °C 4.9 °C 1014.4 hPa SSE 11.1 km/h 35.2 km/h 94% 4.83 mm 0.00 W/m2
05:35 5.8 °C 4.9 °C 1014.8 hPa SE 11.1 km/h 11.1 km/h 94% 4.83 mm 0.00 W/m2
05:38 5.8 °C 4.9 °C 1014.8 hPa ESE 18.5 km/h 25.9 km/h 94% 4.06 mm 0.00 W/m2
05:40 5.8 °C 4.9 °C 1014.8 hPa SW 7.4 km/h 25.9 km/h 94% 4.06 mm 0.00 W/m2
05:43 5.8 °C 4.9 °C 1015.1 hPa East 5.5 km/h 16.6 km/h 94% 4.06 mm 0.00 W/m2
05:48 5.8 °C 4.9 °C 1015.8 hPa East 9.3 km/h 9.3 km/h 94% 4.06 mm 0.00 W/m2
05:50 5.9 °C 5 °C 1015.8 hPa ESE 5.6 km/h 14.8 km/h 94% 4.06 mm 0.00 W/m2
05:53 5.9 °C 5.1 °C 1015.8 hPa East 9.3 km/h 18.5 km/h 94% 3.56 mm 0.00 W/m2
05:55 6 °C 4.9 °C 1016.1 hPa Calm   18.5 km/h 93% 3.56 mm 0.00 W/m2
06:00 6 °C 4.9 °C 1016.8 hPa SE 7.4 km/h 7.4 km/h 93% 3.05 mm 0.00 W/m2
06:01 6 °C 4.9 °C 1016.8 hPa ENE 5.5 km/h 5.5 km/h 93% 3.05 mm 0.00 W/m2
06:05 5.9 °C 4.9 °C 1016.8 hPa SSE 16.7 km/h 18.5 km/h 93% 2.79 mm 0.00 W/m2
06:06 5.9 °C 4.9 °C 1016.8 hPa South 13 km/h 18.5 km/h 93% 2.79 mm 0.00 W/m2
06:13 6.4 °C 5.2 °C 1016.8 hPa SE 14.8 km/h 18.5 km/h 92% 2.54 mm 0.00 W/m2
06:14 6.4 °C 5.2 °C 1016.8 hPa SSE 11.1 km/h 20.3 km/h 92% 2.54 mm 0.00 W/m2
06:15 6.3 °C 5.1 °C 1016.8 hPa East 3.7 km/h 20.3 km/h 92% 2.54 mm 0.00 W/m2
06:19 6.3 °C 5 °C 1016.1 hPa ESE 14.8 km/h 16.6 km/h 91% 1.27 mm 0.00 W/m2
06:20 6.3 °C 5 °C 1016.5 hPa East 13 km/h 18.5 km/h 91% 1.27 mm 0.00 W/m2
06:25 6.3 °C 5 °C 1016.8 hPa East 5.5 km/h 5.5 km/h 91% 0.51 mm 0.00 W/m2
06:30 6.3 °C 5 °C 1016.8 hPa SE 9.3 km/h 11.1 km/h 91% 0.51 mm 0.00 W/m2
06:31 6.3 °C 5 °C 1016.8 hPa SSE 9.3 km/h 11.1 km/h 91% 0.51 mm 0.00 W/m2
06:35 6.2 °C 4.8 °C 1016.1 hPa SE 13 km/h 13 km/h 91% 0.25 mm 0.00 W/m2
06:37 6.2 °C 4.8 °C 1016.1 hPa SE 13 km/h 13 km/h 91% 0 mm 0.00 W/m2
06:40 6.2 °C 4.9 °C 1016.1 hPa East 5.6 km/h 16.7 km/h 91% 0 mm 0.00 W/m2
06:42 6.2 °C 4.9 °C 1016.1 hPa ESE 5.5 km/h 9.3 km/h 91% 0 mm 0.00 W/m2
06:48 6 °C 4.7 °C 1016.1 hPa SE 13 km/h 13 km/h 91% 0 mm 0.00 W/m2
06:50 6 °C 4.7 °C 1015.8 hPa SE 11.1 km/h 14.8 km/h 91% 0 mm 0.00 W/m2
06:53 5.9 °C 4.6 °C 1016.1 hPa SSE 11.1 km/h 14.8 km/h 91% 0 mm 0.00 W/m2
06:59 5.8 °C 4.6 °C 1016.5 hPa SSE 16.6 km/h 16.6 km/h 92% 0 mm 0.00 W/m2
07:00 5.8 °C 4.6 °C 1016.5 hPa SSE 9.3 km/h 16.7 km/h 92% 0 mm 0.00 W/m2
07:04 5.8 °C 4.6 °C 1016.1 hPa SE 5.5 km/h 14.8 km/h 92% 0 mm 5.00 W/m2
07:05 5.8 °C 4.6 °C 1016.1 hPa SSE 14.8 km/h 14.8 km/h 92% 0 mm 7.00 W/m2
07:10 5.9 °C 4.7 °C 1016.5 hPa SSE 7.4 km/h 7.4 km/h 92% 0 mm 9.00 W/m2
07:15 5.9 °C 4.7 °C 1016.1 hPa SE 7.4 km/h 14.8 km/h 92% 0 mm 12.00 W/m2
07:16 5.9 °C 4.7 °C 1016.1 hPa SE 9.3 km/h 14.8 km/h 92% 0 mm 12.00 W/m2
07:22 6.2 °C 4.9 °C 1016.1 hPa SE 7.4 km/h 7.4 km/h 92% 0 mm 16.00 W/m2
07:25 6.3 °C 5 °C 1016.1 hPa SE 9.3 km/h 14.8 km/h 91% 0 mm 18.00 W/m2
07:27 6.3 °C 5 °C 1016.5 hPa SE 3.7 km/h 13 km/h 91% 0 mm 16.00 W/m2
07:33 6.3 °C 5 °C 1016.1 hPa SE 5.5 km/h 5.5 km/h 91% 0 mm 25.00 W/m2
07:35 6.4 °C 5 °C 1016.1 hPa SE 11.1 km/h 16.7 km/h 91% 0 mm 30.00 W/m2
07:38 6.4 °C 5 °C 1016.1 hPa SE 3.7 km/h 13 km/h 91% 0 mm 30.00 W/m2
07:44 6.4 °C 5 °C 1015.8 hPa ESE 7.4 km/h 7.4 km/h 91% 0 mm 30.00 W/m2
07:45 6.4 °C 5 °C 1016.1 hPa SE 11.1 km/h 16.7 km/h 91% 0 mm 28.00 W/m2
07:49 6.4 °C 5.2 °C 1015.8 hPa ESE 7.4 km/h 11.1 km/h 92% 0 mm 33.00 W/m2
07:50 6.3 °C 5.1 °C 1015.8 hPa ESE 13 km/h 18.5 km/h 92% 0 mm 42.00 W/m2
07:55 6.3 °C 5.1 °C 1016.1 hPa ESE 13 km/h 13 km/h 92% 0 mm 44.00 W/m2
08:00 6.3 °C 5.1 °C 1016.1 hPa SE 7.4 km/h 14.8 km/h 92% 0 mm 46.00 W/m2
08:05 6.3 °C 5.1 °C 1015.8 hPa SSE 5.6 km/h 5.6 km/h 92% 0 mm 65.00 W/m2
08:06 6.3 °C 5.1 °C 1015.8 hPa SSE 5.5 km/h 5.5 km/h 92% 0 mm 65.00 W/m2
08:10 6.3 °C 5.3 °C 1015.8 hPa ESE 22.2 km/h 22.2 km/h 93% 0 mm 65.00 W/m2
08:11 6.3 °C 5.3 °C 1015.8 hPa ESE 22.2 km/h 22.2 km/h 93% 0 mm 65.00 W/m2
08:18 6.4 °C 5.2 °C 1015.8 hPa ESE 14.8 km/h 14.8 km/h 92% 0 mm 77.00 W/m2
08:20 6.4 °C 5.4 °C 1015.8 hPa SE 9.3 km/h 16.7 km/h 93% 0 mm 105.00 W/m2
08:23 6.4 °C 5.4 °C 1015.8 hPa ESE 13 km/h 22.2 km/h 93% 0 mm 105.00 W/m2
08:29 6.5 °C 5.3 °C 1015.8 hPa SE 14.8 km/h 14.8 km/h 92% 0 mm 149.00 W/m2
08:30 6.6 °C 5.6 °C 1015.8 hPa SE 16.7 km/h 20.3 km/h 93% 0 mm 185.00 W/m2
08:34 6.7 °C 5.7 °C 1015.8 hPa SE 9.3 km/h 16.6 km/h 93% 0 mm 213.00 W/m2
08:40 6.9 °C 5.7 °C 1015.8 hPa ESE 13 km/h 13 km/h 92% 0 mm 195.00 W/m2
08:45 7.1 °C 5.8 °C 1015.5 hPa SE 11.1 km/h 22.2 km/h 92% 0 mm 216.00 W/m2
08:50 7.2 °C 6 °C 1015.8 hPa SSE 14.8 km/h 14.8 km/h 92% 0 mm 283.00 W/m2
08:51 7.2 °C 6 °C 1015.8 hPa SSE 14.8 km/h 14.8 km/h 92% 0 mm 283.00 W/m2
08:55 7.4 °C 6.1 °C 1015.8 hPa SSE 14.8 km/h 18.5 km/h 91% 0 mm 313.00 W/m2
08:56 7.4 °C 6.1 °C 1015.8 hPa East 14.8 km/h 18.5 km/h 91% 0 mm 313.00 W/m2
09:02 7.7 °C 6.3 °C 1015.5 hPa SE 16.6 km/h 16.6 km/h 91% 0 mm 316.00 W/m2
09:05 7.8 °C 6.4 °C 1015.5 hPa SE 13 km/h 24 km/h 91% 0 mm 299.00 W/m2
09:07 7.8 °C 6.4 °C 1015.5 hPa SE 3.7 km/h 14.8 km/h 91% 0 mm 346.00 W/m2
09:13 8.1 °C 6.7 °C 1015.5 hPa SE 11.1 km/h 11.1 km/h 91% 0 mm 378.00 W/m2
09:15 8.2 °C 6.6 °C 1015.5 hPa SE 16.7 km/h 18.5 km/h 90% 0 mm 341.00 W/m2
09:18 8.2 °C 6.7 °C 1015.8 hPa SE 11.1 km/h 22.2 km/h 90% 0 mm 155.00 W/m2
09:25 7.9 °C 6.3 °C 1015.5 hPa SE 9.3 km/h 9.3 km/h 90% 0 mm 114.00 W/m2
09:30 7.8 °C 6.4 °C 1015.5 hPa SE 16.6 km/h 22.2 km/h 91% 0 mm 369.00 W/m2
09:35 8.2 °C 6.6 °C 1015.8 hPa ESE 7.4 km/h 18.5 km/h 90% 0 mm 236.00 W/m2
09:36 8.2 °C 6.6 °C 1015.8 hPa ESE 16.6 km/h 16.6 km/h 90% 0 mm 299.00 W/m2
09:40 8.3 °C 6.7 °C 1015.5 hPa ESE 5.6 km/h 22.2 km/h 90% 0 mm 172.00 W/m2
09:41 8.3 °C 6.7 °C 1015.5 hPa ESE 7.4 km/h 22.2 km/h 90% 0 mm 165.00 W/m2
09:45 8.1 °C 6.7 °C 1015.8 hPa East 9.3 km/h 9.3 km/h 91% 0 mm 258.00 W/m2
09:47 8.1 °C 6.7 °C 1015.8 hPa East 9.3 km/h 9.3 km/h 91% 0 mm 258.00 W/m2
09:50 8.2 °C 7 °C 1015.8 hPa ESE 9.3 km/h 20.3 km/h 92% 0 mm 522.00 W/m2
09:52 8.3 °C 7.1 °C 1015.8 hPa SE 14.8 km/h 22.2 km/h 92% 0 mm 475.00 W/m2
09:58 8.7 °C 7.4 °C 1015.8 hPa SSE 5.5 km/h 5.5 km/h 92% 0 mm 411.00 W/m2
10:00 8.9 °C 7.6 °C 1016.1 hPa South 5.6 km/h 16.7 km/h 91% 0 mm 220.00 W/m2
10:03 8.9 °C 7.6 °C 1016.1 hPa ESE 9.3 km/h 13 km/h 91% 0 mm 185.00 W/m2
10:09 8.8 °C 7.1 °C 1015.8 hPa SSE 7.4 km/h 7.4 km/h 89% 0 mm 102.00 W/m2
10:10 8.8 °C 7.2 °C 1015.8 hPa ESE 5.6 km/h 14.8 km/h 90% 0 mm 93.00 W/m2
10:14 8.7 °C 7.2 °C 1015.8 hPa SSE 9.3 km/h 18.5 km/h 90% 0 mm 77.00 W/m2
10:15 8.7 °C 6.9 °C 1015.8 hPa SE 13 km/h 20.3 km/h 89% 0 mm 69.00 W/m2
10:20 8.6 °C 6.8 °C 1015.8 hPa ESE 9.3 km/h 9.3 km/h 89% 0 mm 74.00 W/m2
10:25 8.5 °C 6.8 °C 1015.8 hPa SSE 9.3 km/h 20.3 km/h 89% 0 mm 88.00 W/m2
10:30 8.4 °C 6.9 °C 1015.8 hPa ESE 16.7 km/h 16.7 km/h 90% 0.25 mm 264.00 W/m2
10:31 8.4 °C 6.9 °C 1015.8 hPa ESE 16.6 km/h 16.6 km/h 90% 0.25 mm 264.00 W/m2
10:35 8.8 °C 7.4 °C 1015.8 hPa SE 7.4 km/h 16.7 km/h 91% 0.51 mm 181.00 W/m2
10:36 8.8 °C 7.4 °C 1015.8 hPa ESE 7.4 km/h 9.3 km/h 91% 0.51 mm 181.00 W/m2
10:43 9.5 °C 8.3 °C 1015.8 hPa SE 11.1 km/h 11.1 km/h 92% 0 mm 652.00 W/m2
10:45 10.1 °C 8.9 °C 1015.8 hPa SSE 1.8 km/h 14.8 km/h 92% 0.51 mm 631.00 W/m2
10:48 10.1 °C 8.6 °C 1015.8 hPa NE 1.8 km/h 13 km/h 90% 0.51 mm 461.00 W/m2
10:54 10.1 °C 8.4 °C 1015.8 hPa South 18.5 km/h 18.5 km/h 89% 0.51 mm 534.00 W/m2
10:55 10.2 °C 8.5 °C 1015.8 hPa SE 3.7 km/h 18.5 km/h 89% 0.51 mm 520.00 W/m2
10:57 10.2 °C 8.5 °C 1015.8 hPa SSE 11.1 km/h 11.1 km/h 89% 0.51 mm 439.00 W/m2
11:00 10.2 °C 8.3 °C 1015.8 hPa SSE 14.8 km/h 20.3 km/h 88% 0.51 mm 309.00 W/m2
11:05 10.4 °C 8.3 °C 1015.8 hPa SE 16.6 km/h 16.6 km/h 87% 0.51 mm 417.00 W/m2
11:10 10.7 °C 8.8 °C 1015.5 hPa SE 9.3 km/h 16.6 km/h 88% 0.51 mm 497.00 W/m2
11:15 10.6 °C 8.3 °C 1015.5 hPa SSE 14.8 km/h 14.8 km/h 86% 0.51 mm 244.00 W/m2
11:16 10.6 °C 8.3 °C 1015.5 hPa SSE 14.8 km/h 14.8 km/h 86% 0 mm 244.00 W/m2
11:20 10.6 °C 8.4 °C 1015.5 hPa SE 14.8 km/h 18.5 km/h 86% 0.51 mm 295.00 W/m2
11:21 10.6 °C 8.4 °C 1015.5 hPa SE 5.5 km/h 18.5 km/h 86% 0.51 mm 295.00 W/m2
11:27 11 °C 8.8 °C 1015.5 hPa SSE 14.8 km/h 14.8 km/h 86% 0 mm 265.00 W/m2
11:30 11.3 °C 9 °C 1015.8 hPa SSE 9.3 km/h 22.2 km/h 86% 0.51 mm 429.00 W/m2
11:32 11.4 °C 9.1 °C 1016.1 hPa SSE 11.1 km/h 18.5 km/h 86% 0.25 mm 364.00 W/m2
11:38 11 °C 8.4 °C 1016.1 hPa East 9.3 km/h 9.3 km/h 84% 0 mm 410.00 W/m2
11:43 11.4 °C 9.1 °C 1015.8 hPa ESE 18.5 km/h 20.3 km/h 86% 0 mm 396.00 W/m2
11:48 11.6 °C 9.1 °C 1015.8 hPa South 14.8 km/h 16.6 km/h 85% 0 mm 427.00 W/m2
11:53 11.6 °C 8.9 °C 1015.8 hPa SSE 14.8 km/h 20.3 km/h 84% 0 mm 304.00 W/m2
11:58 11.4 °C 8.8 °C 1015.5 hPa SSE 14.8 km/h 14.8 km/h 84% 0 mm 311.00 W/m2
12:03 11.5 °C 8.7 °C 1015.5 hPa SSE 7.4 km/h 13 km/h 83% 0 mm 410.00 W/m2
12:08 11.9 °C 9.1 °C 1015.5 hPa SE 7.4 km/h 11.1 km/h 83% 0 mm 424.00 W/m2
12:14 11.9 °C 9 °C 1015.1 hPa SSE 13 km/h 16.6 km/h 82% 0 mm 513.00 W/m2
12:19 12.1 °C 9.1 °C 1015.5 hPa South 5.5 km/h 16.6 km/h 82% 0 mm 411.00 W/m2
12:24 11.8 °C 8.5 °C 1015.5 hPa SSE 3.7 km/h 11.1 km/h 80% 0 mm 341.00 W/m2
12:29 11.9 °C 9.2 °C 1015.5 hPa SSE 9.3 km/h 14.8 km/h 83% 0 mm 410.00 W/m2
12:34 11.8 °C 8.6 °C 1015.8 hPa SSE 9.3 km/h 11.1 km/h 81% 0 mm 373.00 W/m2
12:39 11.9 °C 8.7 °C 1015.8 hPa SSE 7.4 km/h 14.8 km/h 81% 0 mm 330.00 W/m2
12:44 11.8 °C 8.7 °C 1015.8 hPa SSE 11.1 km/h 16.6 km/h 81% 0 mm 383.00 W/m2
12:49 12 °C 8.8 °C 1015.5 hPa SSE 5.5 km/h 16.6 km/h 81% 0 mm 388.00 W/m2
12:50 11.9 °C 8.8 °C 1015.5 hPa SSE 7.4 km/h 16.6 km/h 81% 0 mm 306.00 W/m2
12:55 11.7 °C 8.5 °C 1015.1 hPa South 3.7 km/h 11.1 km/h 81% 0 mm 197.00 W/m2
13:00 11.7 °C 8.7 °C 1015.1 hPa South 7.4 km/h 13 km/h 82% 0 mm 403.00 W/m2
13:05 11.9 °C 8.7 °C 1014.8 hPa SSE 3.7 km/h 13 km/h 81% 0 mm 267.00 W/m2
13:10 12 °C 8.7 °C 1014.8 hPa South 3.7 km/h 9.3 km/h 80% 0 mm 367.00 W/m2
13:15 12.1 °C 8.9 °C 1014.8 hPa South 1.8 km/h 7.4 km/h 81% 0 mm 329.00 W/m2
13:20 12.5 °C 9.2 °C 1014.4 hPa South 3.7 km/h 9.3 km/h 80% 0 mm 485.00 W/m2
13:25 12.3 °C 8.8 °C 1014.4 hPa SSE 9.3 km/h 14.8 km/h 79% 0 mm 422.00 W/m2
13:30 12.6 °C 9 °C 1014.1 hPa SW 7.4 km/h 11.1 km/h 79% 0 mm 455.00 W/m2
13:35 12.8 °C 9.9 °C 1014.1 hPa SSE 5.5 km/h 9.3 km/h 83% 0 mm 378.00 W/m2
13:40 12.7 °C 9 °C 1014.4 hPa SSE 9.3 km/h 14.8 km/h 78% 0 mm 339.00 W/m2
13:45 12.5 °C 9.3 °C 1014.4 hPa SSE 5.5 km/h 11.1 km/h 81% 0 mm 352.00 W/m2
13:50 12.5 °C 8.9 °C 1014.4 hPa South 3.7 km/h 13 km/h 79% 0 mm 330.00 W/m2
13:55 12.3 °C 8.6 °C 1014.4 hPa WSW 1.8 km/h 9.3 km/h 78% 0 mm 311.00 W/m2
14:00 12.3 °C 8.7 °C 1014.1 hPa WSW 3.7 km/h 9.3 km/h 79% 0 mm 218.00 W/m2
14:05 12.2 °C 8.5 °C 1014.4 hPa SW 1.8 km/h 9.3 km/h 78% 0 mm 137.00 W/m2
14:10 11.8 °C 8.3 °C 1014.4 hPa West 1.8 km/h 7.4 km/h 79% 0 mm 135.00 W/m2
14:15 11.8 °C 8.5 °C 1014.4 hPa Calm   3.7 km/h 80% 0 mm 127.00 W/m2
14:20 12 °C 9.2 °C 1014.4 hPa Calm   3.7 km/h 83% 0 mm 118.00 W/m2
14:25 11.9 °C 8.6 °C 1014.4 hPa Calm   3.7 km/h 80% 0 mm 139.00 W/m2
14:30 11.8 °C 8.9 °C 1014.1 hPa Calm     82% 0 mm 146.00 W/m2
14:35 11.9 °C 8.6 °C 1014.1 hPa Calm     80% 0 mm 130.00 W/m2
14:40 12 °C 8.7 °C 1014.1 hPa Calm     80% 0 mm 125.00 W/m2
14:45 12 °C 8.8 °C 1014.1 hPa Calm     81% 0 mm 134.00 W/m2
14:50 12 °C 8.8 °C 1014.1 hPa Calm     81% 0 mm 127.00 W/m2
14:56 12.1 °C 8.8 °C 1014.1 hPa Calm     80% 0 mm 135.00 W/m2
15:01 12.1 °C 8.8 °C 1014.1 hPa Calm     80% 0 mm 90.00 W/m2
15:06 12.1 °C 9.1 °C 1014.1 hPa NNW 5.5 km/h 7.4 km/h 82% 0 mm 70.00 W/m2
15:11 12.1 °C 9.1 °C 1014.4 hPa NNW 1.8 km/h 7.4 km/h 82% 0 mm 62.00 W/m2
15:16 12 °C 8.8 °C 1014.4 hPa NNW 3.7 km/h 5.5 km/h 81% 0 mm 58.00 W/m2
15:21 11.9 °C 9 °C 1014.4 hPa NNW 1.8 km/h 3.7 km/h 82% 0 mm 54.00 W/m2
15:26 11.9 °C 8.9 °C 1014.4 hPa Calm   7.4 km/h 82% 0 mm 58.00 W/m2
15:31 11.8 °C 9.1 °C 1014.4 hPa Calm   7.4 km/h 83% 0 mm 44.00 W/m2
15:36 11.8 °C 8.8 °C 1014.4 hPa Calm   5.5 km/h 82% 0 mm 44.00 W/m2
15:41 11.7 °C 8.9 °C 1014.4 hPa Calm   9.3 km/h 83% 0 mm 53.00 W/m2
15:46 11.7 °C 8.9 °C 1014.4 hPa NNE 3.7 km/h 3.7 km/h 83% 0 mm 51.00 W/m2
15:51 11.7 °C 9.1 °C 1014.8 hPa NE 3.7 km/h 5.5 km/h 84% 0 mm 47.00 W/m2
15:56 11.7 °C 9.3 °C 1014.8 hPa NNW 16.6 km/h 16.6 km/h 85% 0 mm 40.00 W/m2
16:01 11.6 °C 9 °C 1014.8 hPa NE 7.4 km/h 9.3 km/h 84% 0 mm 47.00 W/m2
16:06 11.5 °C 9.1 °C 1015.1 hPa North 7.4 km/h 14.8 km/h 85% 0 mm 47.00 W/m2
16:11 11.3 °C 8.7 °C 1015.1 hPa ENE 3.7 km/h 3.7 km/h 84% 0 mm 32.00 W/m2
16:16 11 °C 8.4 °C 1015.1 hPa ENE 9.3 km/h 13 km/h 84% 0 mm 47.00 W/m2
16:21 10.7 °C 8.3 °C 1015.1 hPa NE 9.3 km/h 13 km/h 85% 0 mm 44.00 W/m2
16:26 10.4 °C 7.9 °C 1015.1 hPa NE 11.1 km/h 13 km/h 84% 0 mm 53.00 W/m2
16:31 10.3 °C 7.7 °C 1015.1 hPa NNE 3.7 km/h 5.5 km/h 84% 0 mm 62.00 W/m2
16:36 10.3 °C 7.7 °C 1015.1 hPa NE 9.3 km/h 13 km/h 84% 0 mm 79.00 W/m2
16:41 10.3 °C 7.9 °C 1015.1 hPa NE 7.4 km/h 7.4 km/h 85% 0 mm 72.00 W/m2
16:46 10.2 °C 7.7 °C 1015.1 hPa NNE 9.3 km/h 9.3 km/h 84% 0 mm 72.00 W/m2
16:51 10.2 °C 7.6 °C 1015.5 hPa NNE 11.1 km/h 22.2 km/h 84% 0 mm 53.00 W/m2
16:56 10.1 °C 7.3 °C 1015.5 hPa ENE 9.3 km/h 14.8 km/h 83% 0 mm 46.00 W/m2
17:02 9.9 °C 7.2 °C 1015.5 hPa NE 5.5 km/h 5.5 km/h 83% 0 mm 53.00 W/m2
17:07 9.8 °C 7.3 °C 1015.5 hPa NE 13 km/h 16.6 km/h 84% 0 mm 62.00 W/m2
17:12 9.8 °C 7.2 °C 1015.5 hPa NNE 11.1 km/h 14.8 km/h 84% 0 mm 54.00 W/m2
17:17 9.8 °C 7.2 °C 1015.8 hPa NE 11.1 km/h 13 km/h 84% 0 mm 51.00 W/m2
17:22 9.7 °C 7.1 °C 1015.8 hPa NNE 11.1 km/h 13 km/h 84% 0 mm 46.00 W/m2
17:27 9.7 °C 7.3 °C 1015.8 hPa North 9.3 km/h 13 km/h 85% 0 mm 44.00 W/m2
17:32 9.6 °C 7 °C 1016.1 hPa NE 11.1 km/h 20.3 km/h 84% 0 mm 39.00 W/m2
17:37 9.5 °C 6.8 °C 1016.1 hPa North 14.8 km/h 14.8 km/h 83% 0 mm 42.00 W/m2
17:42 9.4 °C 6.7 °C 1016.1 hPa NE 9.3 km/h 13 km/h 83% 0 mm 35.00 W/m2
17:47 9.4 °C 6.8 °C 1016.1 hPa NNE 1.8 km/h 11.1 km/h 84% 0 mm 30.00 W/m2
17:52 9.3 °C 6.8 °C 1016.1 hPa NNE 5.5 km/h 7.4 km/h 84% 0 mm 18.00 W/m2
17:57 9.2 °C 6.6 °C 1016.5 hPa NNE 11.1 km/h 13 km/h 84% 0 mm 9.00 W/m2
18:02 9.1 °C 6.7 °C 1016.5 hPa NNE 9.3 km/h 11.1 km/h 85% 0 mm 9.00 W/m2
18:07 8.8 °C 6.4 °C 1016.5 hPa North 9.3 km/h 13 km/h 85% 0 mm 9.00 W/m2
18:13 8.6 °C 6.2 °C 1016.8 hPa North 7.4 km/h 16.6 km/h 85% 0 mm 9.00 W/m2
18:18 8.4 °C 6.1 °C 1016.8 hPa NNE 3.7 km/h 13 km/h 85% 0 mm 9.00 W/m2
18:23 8.3 °C 6.1 °C 1016.8 hPa NNE 9.3 km/h 14.8 km/h 86% 0 mm 7.00 W/m2
18:28 8.2 °C 6.3 °C 1016.8 hPa North 11.1 km/h 20.3 km/h 88% 0 mm 11.00 W/m2
18:33 7.8 °C 6.1 °C 1017.2 hPa Calm   18.5 km/h 89% 0 mm 12.00 W/m2
18:38 7.7 °C 6.2 °C 1017.2 hPa North 14.8 km/h 14.8 km/h 90% 0 mm 12.00 W/m2
18:43 7.7 °C 6 °C 1017.2 hPa NNE 5.5 km/h 16.6 km/h 89% 0 mm 9.00 W/m2
18:48 7.7 °C 6 °C 1017.2 hPa NNE 7.4 km/h 14.8 km/h 89% 0 mm 5.00 W/m2
18:53 7.7 °C 6 °C 1017.2 hPa NNE 9.3 km/h 13 km/h 89% 0 mm 0.00 W/m2
18:58 7.7 °C 6 °C 1017.2 hPa NE 5.5 km/h 13 km/h 89% 0 mm 0.00 W/m2
19:03 7.6 °C 5.9 °C 1017.2 hPa NNE 7.4 km/h 14.8 km/h 89% 0 mm 0.00 W/m2
19:08 7.6 °C 5.9 °C 1017.5 hPa NNE 5.5 km/h 11.1 km/h 89% 0 mm 0.00 W/m2
19:13 7.6 °C 5.8 °C 1017.5 hPa NE 11.1 km/h 11.1 km/h 89% 0 mm 0.00 W/m2
19:18 7.6 °C 5.8 °C 1017.5 hPa NNE 11.1 km/h 16.6 km/h 89% 0 mm 0.00 W/m2
19:19 7.5 °C 5.8 °C 1017.5 hPa Calm   16.6 km/h 89% 0 mm 0.00 W/m2
19:24 7.5 °C 5.8 °C 1017.8 hPa NNE 5.5 km/h 13 km/h 89% 0 mm 0.00 W/m2
19:29 7.5 °C 5.8 °C 1018.2 hPa NNE 3.7 km/h 14.8 km/h 89% 0 mm 0.00 W/m2
19:34 7.5 °C 5.8 °C 1017.8 hPa North 9.3 km/h 11.1 km/h 89% 0 mm 0.00 W/m2
19:39 7.4 °C 5.7 °C 1018.2 hPa NNE 7.4 km/h 11.1 km/h 89% 0 mm 0.00 W/m2
19:44 7.4 °C 5.7 °C 1018.2 hPa North 3.7 km/h 13 km/h 89% 0 mm 0.00 W/m2
19:49 7.4 °C 5.7 °C 1017.8 hPa North 14.8 km/h 14.8 km/h 89% 0 mm 0.00 W/m2
19:55 7.4 °C 5.7 °C 1018.2 hPa North 9.3 km/h 14.8 km/h 89% 0 mm 0.00 W/m2
20:00 7.3 °C 5.7 °C 1017.8 hPa NNE 5.5 km/h 20.3 km/h 89% 0 mm 0.00 W/m2
20:05 7.2 °C 5.6 °C 1017.8 hPa NNE 11.1 km/h 14.8 km/h 89% 0 mm 0.00 W/m2
20:10 7.1 °C 5.3 °C 1017.8 hPa Calm   11.1 km/h 88% 0 mm 0.00 W/m2
20:15 6.9 °C 5.3 °C 1017.8 hPa NNE 1.8 km/h 9.3 km/h 89% 0 mm 0.00 W/m2
20:20 6.8 °C 5.1 °C 1017.8 hPa Calm   13 km/h 89% 0 mm 0.00 W/m2
20:25 6.7 °C 5 °C 1017.8 hPa NE 5.5 km/h 11.1 km/h 89% 0 mm 0.00 W/m2
20:30 6.6 °C 4.9 °C 1017.8 hPa NE 7.4 km/h 13 km/h 89% 0 mm 0.00 W/m2
20:35 6.5 °C 4.8 °C 1017.8 hPa NNE 1.8 km/h 16.6 km/h 89% 0 mm 0.00 W/m2
20:40 6.3 °C 4.8 °C 1017.8 hPa NNE 7.4 km/h 13 km/h 90% 0 mm 0.00 W/m2
20:50 6.1 °C 4.6 °C 1018.2 hPa Calm   14.8 km/h 90% 0 mm 0.00 W/m2
20:55 6 °C 4.5 °C 1018.2 hPa NNE 3.7 km/h 9.3 km/h 90% 0 mm 0.00 W/m2
21:00 5.8 °C 4.3 °C 1018.2 hPa NE 9.3 km/h 11.1 km/h 90% 0 mm 0.00 W/m2
21:05 5.7 °C 4.2 °C 1017.8 hPa NE 3.7 km/h 7.4 km/h 90% 0 mm 0.00 W/m2
21:10 5.6 °C 4.3 °C 1018.2 hPa NNE 7.4 km/h 9.3 km/h 91% 0 mm 0.00 W/m2
21:15 5.5 °C 4.2 °C 1018.5 hPa North 5.5 km/h 11.1 km/h 91% 0 mm 0.00 W/m2
21:20 5.4 °C 4.1 °C 1018.5 hPa North 7.4 km/h 11.1 km/h 91% 0 mm 0.00 W/m2
21:25 5.6 °C 4.3 °C 1018.5 hPa NNW 1.8 km/h 13 km/h 92% 0 mm 0.00 W/m2
21:30 5.6 °C 4.3 °C 1018.5 hPa North 1.8 km/h 11.1 km/h 91% 0 mm 0.00 W/m2
21:35 5.6 °C 4.2 °C 1018.5 hPa NNW 5.5 km/h 9.3 km/h 91% 0 mm 0.00 W/m2
21:40 5.4 °C 4.1 °C 1018.5 hPa NNW 7.4 km/h 9.3 km/h 91% 0 mm 0.00 W/m2
21:45 5.2 °C 3.9 °C 1018.2 hPa NNE 7.4 km/h 13 km/h 91% 0 mm 0.00 W/m2
21:50 5.2 °C 4 °C 1018.5 hPa North 7.4 km/h 16.6 km/h 92% 0 mm 0.00 W/m2
21:55 5.2 °C 4 °C 1018.5 hPa NNE 9.3 km/h 14.8 km/h 92% 0 mm 0.00 W/m2
22:00 5.3 °C 4 °C 1018.5 hPa NE 9.3 km/h 22.2 km/h 91% 0 mm 0.00 W/m2
22:05 5.3 °C 3.9 °C 1018.5 hPa North 5.5 km/h 14.8 km/h 91% 0 mm 0.00 W/m2
22:10 5.2 °C 3.8 °C 1018.5 hPa Calm   13 km/h 91% 0 mm 0.00 W/m2
22:15 5 °C 3.7 °C 1018.5 hPa NNE 1.8 km/h 9.3 km/h 91% 0 mm 0.00 W/m2
22:25 4.9 °C 3.6 °C 1018.8 hPa NNE 7.4 km/h 9.3 km/h 91% 0 mm 0.00 W/m2
22:30 4.8 °C 3.5 °C 1019.2 hPa Calm   7.4 km/h 91% 0 mm 0.00 W/m2
22:35 4.8 °C 3.5 °C 1019.2 hPa NNE 3.7 km/h 7.4 km/h 91% 0 mm 0.00 W/m2
22:40 4.8 °C 3.4 °C 1019.5 hPa Calm   9.3 km/h 91% 0 mm 0.00 W/m2
22:45 4.6 °C 3.3 °C 1019.5 hPa NNE 5.5 km/h 7.4 km/h 91% 0 mm 0.00 W/m2
22:51 4.5 °C 3.3 °C 1019.5 hPa Calm   7.4 km/h 92% 0 mm 0.00 W/m2
22:56 4.4 °C 3.2 °C 1019.5 hPa Calm   5.5 km/h 92% 0 mm 0.00 W/m2
23:01 4.3 °C 3.1 °C 1019.2 hPa NNE 3.7 km/h 7.4 km/h 92% 0 mm 0.00 W/m2
23:11 4.2 °C 3 °C 1019.5 hPa NNE 5.5 km/h 11.1 km/h 92% 0 mm 0.00 W/m2
23:16 4.2 °C 3.1 °C 1019.5 hPa North 5.5 km/h 7.4 km/h 92% 0 mm 0.00 W/m2
23:21 4.1 °C 2.9 °C 1019.5 hPa North 5.5 km/h 7.4 km/h 92% 0 mm 0.00 W/m2
23:26 3.9 °C 2.8 °C 1019.5 hPa Calm   7.4 km/h 92% 0 mm 0.00 W/m2
23:31 3.8 °C 2.7 °C 1019.5 hPa North 3.7 km/h 3.7 km/h 92% 0 mm 0.00 W/m2
23:36 3.7 °C 2.5 °C 1019.5 hPa North 3.7 km/h 5.5 km/h 92% 0 mm 0.00 W/m2
23:41 3.6 °C 2.6 °C 1019.5 hPa North 3.7 km/h 5.5 km/h 93% 0 mm 0.00 W/m2
23:46 3.5 °C 2.5 °C 1019.5 hPa Calm   5.5 km/h 93% 0 mm 0.00 W/m2
23:51 3.4 °C 2.4 °C 1019.5 hPa Calm     93% 0 mm 0.00 W/m2
23:56 3.3 °C 2.3 °C 1019.5 hPa Calm   1.8 km/h 93% 0 mm 0.00 W/m2
peotoneweather.com
Compliments of Weather Underground - 1.75 mb